Location: Gro�sch�nbrunn
(49.5760°N, 11.8868°E)
Time: 01:37:54
(UTC+00:00)

ATLAS 3B R/B - Pass Details

Date: 18 September 2020
Orbit: 1016 x 1179 km, 63.8° (Epoch: 28 October)

Event Time Altitude Azimuth Distance (km) Brightness Sun altitude
Rises 19:31:05 0° 315° (NW) 3,807 7.0 -21.3°
Reaches altitude 10° 19:33:49 10° 322° (NW) 2,871 5.9 -21.7°
Maximum altitude 19:40:20 46° 35° (NE) 1,411 3.2 -22.6°
Enters shadow 19:42:49 34° 83° (E) 1,719 3.4 -22.9°
